Date String (YYYY-MM-DD hh:mm:ss) UTC,Instrument flags,Ambient pressure (hPa),Sample flow (lpm),Bypass flow (lpm),Sample temperature (°C),Ambient temperature (°C),ASC tube jacket temperature (°C),LED temperature (°C),Box temperature (°C),Sample RH (%),Span deviation,Mass concentration (μg/m³),Mass concentration (μg/m³),Mass concentration (μg/m³)
DateTimeUTC,F1_M11,P_M11,Q1_M11,Q2_M11,T1_M11,T2_M11,T3_M11,T4_M11,T5_M11,U1_M11,ZSPAN_M11,X0_M11,X2_M11,X1_M11
2023-05-16 21:00:00,,0832.7,5.01,0.00,29.5,28.2,00.0,37.8,31.3,19.0,0000.0,0011.46,0004.86,0003.69
2023-05-16 21:01:00,,0832.7,5.01,0.00,29.6,28.3,00.0,37.8,31.3,18.5,0000.0,0011.46,0004.84,0003.68
2023-05-16 21:02:00,,0832.7,4.99,0.00,29.6,27.9,00.0,37.8,31.3,19.7,0000.0,0011.15,0004.81,0003.67
2023-05-16 21:03:00,,0832.7,5.00,0.00,29.6,26.3,00.0,37.8,31.0,19.8,0000.0,0011.07,0004.88,0003.67
2023-05-16 21:04:00,,0832.7,5.01,0.00,29.5,25.8,00.0,37.7,31.0,18.8,0000.0,0011.14,0004.91,0003.66
2023-05-16 21:05:00,,0832.7,5.02,0.00,29.5,26.0,00.0,37.7,30.9,20.2,0000.0,0012.08,0004.87,0003.64
2023-05-16 21:06:00,,0832.6,5.00,0.00,29.4,26.3,00.0,37.7,30.9,20.8,0000.0,0012.28,0004.88,0003.63
2023-05-16 21:07:00,,0832.6,5.00,0.00,29.4,26.6,00.0,37.7,30.9,19.5,0000.0,0011.99,0004.87,0003.61
2023-05-16 21:08:00,,0832.6,5.00,0.00,29.4,26.9,00.0,37.7,31.0,20.1,0000.0,0011.42,0004.82,0003.59
2023-05-16 21:09:00,,0832.5,5.00,0.00,29.4,27.2,00.0,37.7,31.0,19.4,0000.0,0011.21,0004.75,0003.57
2023-05-16 21:10:00,,0832.5,5.00,0.00,29.4,27.4,00.0,37.7,31.1,20.1,0000.0,0011.34,0004.72,0003.55
2023-05-16 21:11:00,,0832.6,4.99,0.00,29.4,27.6,00.0,37.7,31.1,20.0,0000.0,0012.07,0004.74,0003.54
2023-05-16 21:12:00,,0832.5,5.00,0.00,29.4,27.7,00.0,37.7,31.1,20.1,0000.0,0012.11,0004.75,0003.53
2023-05-16 21:13:00,,0832.5,5.00,0.00,29.5,27.9,00.0,37.7,31.2,19.5,0000.0,0012.82,0004.79,0003.52
2023-05-16 21:14:00,,0832.5,4.99,0.00,29.5,28.0,00.0,37.8,31.2,19.1,0000.0,0014.00,0004.79,0003.51
2023-05-16 21:15:00,,0832.5,5.00,0.00,29.5,28.0,00.0,37.8,31.2,19.8,0000.0,0013.96,0004.79,0003.50
2023-05-16 21:16:00,,0832.5,4.99,0.00,29.5,28.1,00.0,37.8,31.2,19.0,0000.0,0012.96,0004.81,0003.51
2023-05-16 21:17:00,,0832.5,5.00,0.00,29.6,28.2,00.0,37.8,31.3,19.6,0000.0,0012.91,0004.80,0003.51
2023-05-16 21:18:00,,0832.5,5.00,0.00,29.6,28.3,00.0,37.8,31.3,18.5,0000.0,0013.00,0004.77,0003.52
2023-05-16 21:19:00,,0832.4,5.00,0.00,29.6,28.3,00.0,37.8,31.3,18.5,0000.0,0012.91,0004.77,0003.52
2023-05-16 21:20:00,,0832.4,4.99,0.00,29.6,28.1,00.0,37.8,31.3,18.4,0000.0,0012.32,0004.77,0003.52
2023-05-16 21:21:00,,0832.3,4.99,0.00,29.6,26.5,00.0,37.8,31.2,19.7,0000.0,0012.01,0004.76,0003.53
2023-05-16 21:22:00,,0832.3,5.01,0.00,29.6,25.9,00.0,37.7,31.0,20.5,0000.0,0011.80,0004.74,0003.53
2023-05-16 21:23:00,,0832.3,5.01,0.00,29.5,26.1,00.0,37.7,30.9,19.7,0000.0,0012.64,0004.77,0003.54
2023-05-16 21:24:00,,0832.3,5.01,0.00,29.4,26.3,00.0,37.7,30.9,18.7,0000.0,0012.49,0004.79,0003.55
2023-05-16 21:25:00,,0832.3,4.99,0.00,29.4,26.6,00.0,37.7,30.9,18.9,0000.0,0011.16,0004.77,0003.56
2023-05-16 21:26:00,,0832.3,5.00,0.00,29.4,26.9,00.0,37.7,31.0,19.8,0000.0,0010.99,0004.76,0003.56
2023-05-16 21:27:00,,0832.3,5.01,0.00,29.4,27.2,00.0,37.7,31.0,19.1,0000.0,0011.10,0004.77,0003.55
2023-05-16 21:28:00,,0832.3,5.00,0.00,29.4,27.4,00.0,37.7,31.1,18.4,0000.0,0011.49,0004.80,0003.54
2023-05-16 21:29:00,,0832.3,4.99,0.00,29.4,27.6,00.0,37.7,31.1,18.6,0000.0,0011.94,0004.89,0003.54
2023-05-16 21:30:00,,0832.3,5.00,0.00,29.5,27.8,00.0,37.8,31.2,19.4,0000.0,0012.72,0004.99,0003.54
2023-05-16 21:31:00,,0832.3,5.02,0.00,29.5,27.9,00.0,37.8,31.2,19.0,0000.0,0012.91,0005.05,0003.56
2023-05-16 21:32:00,,0832.3,4.98,0.00,29.5,28.0,00.0,37.8,31.2,18.5,0000.0,0013.08,0005.06,0003.57
2023-05-16 21:33:00,,0832.3,5.01,0.00,29.5,28.1,00.0,37.8,31.2,18.7,0000.0,0013.55,0005.07,0003.56
2023-05-16 21:34:00,,0832.3,4.99,0.00,29.6,28.2,00.0,37.8,31.3,19.0,0000.0,0012.76,0005.04,0003.56
2023-05-16 21:35:00,,0832.3,5.00,0.00,29.6,28.3,00.0,37.8,31.3,19.8,0000.0,0012.61,0005.04,0003.56
2023-05-16 21:36:00,,0832.3,5.00,0.00,29.6,28.1,00.0,37.8,31.3,21.4,0000.0,0012.75,0005.05,0003.55
2023-05-16 21:37:00,,0832.2,4.99,0.00,29.6,26.5,00.0,37.8,31.1,20.8,0000.0,0012.95,0005.00,0003.54
2023-05-16 21:38:00,,0832.2,5.01,0.00,29.5,25.8,00.0,37.7,31.0,21.0,0000.0,0012.94,0004.96,0003.55
2023-05-16 21:39:00,,0832.2,5.01,0.00,29.5,26.0,00.0,37.7,30.9,21.3,0000.0,0012.82,0004.95,0003.55
2023-05-16 21:40:00,,0832.2,5.00,0.00,29.4,26.2,00.0,37.7,30.9,22.0,0000.0,0012.25,0004.87,0003.54
2023-05-16 21:41:00,,0832.2,5.00,0.00,29.4,26.5,00.0,37.7,30.9,22.3,0000.0,0011.78,0004.82,0003.53
2023-05-16 21:42:00,,0832.2,5.00,0.00,29.4,26.8,00.0,37.7,31.0,22.4,0000.0,0011.53,0004.76,0003.52
2023-05-16 21:43:00,,0832.2,4.99,0.00,29.4,27.1,00.0,37.7,31.0,20.5,0000.0,0011.41,0004.75,0003.51
2023-05-16 21:44:00,,0832.2,4.99,0.00,29.4,27.4,00.0,37.7,31.0,19.8,0000.0,0010.56,0004.76,0003.52
2023-05-16 21:45:00,,0832.2,4.99,0.00,29.4,27.5,00.0,37.7,31.1,19.7,0000.0,0010.54,0004.77,0003.52
2023-05-16 21:46:00,,0832.1,5.00,0.00,29.4,27.7,00.0,37.7,31.1,20.7,0000.0,0011.03,0004.79,0003.52
2023-05-16 21:47:00,,0832.1,5.00,0.00,29.5,27.9,00.0,37.8,31.2,20.3,0000.0,0011.52,0004.76,0003.52
2023-05-16 21:48:00,,0832.2,5.01,0.00,29.5,28.0,00.0,37.8,31.2,20.4,0000.0,0011.95,0004.78,0003.52
2023-05-16 21:49:00,,0832.2,4.99,0.00,29.5,28.1,00.0,37.8,31.2,21.6,0000.0,0012.12,0004.81,0003.52
2023-05-16 21:50:00,,0832.2,5.00,0.00,29.5,28.2,00.0,37.8,31.3,21.6,0000.0,0012.69,0004.81,0003.52
2023-05-16 21:51:00,,0832.2,5.00,0.00,29.6,28.3,00.0,37.8,31.3,20.0,0000.0,0012.49,0004.85,0003.53
2023-05-16 21:52:00,,0832.2,5.00,0.00,29.6,28.3,00.0,37.8,31.3,20.3,0000.0,0012.36,0004.84,0003.53
2023-05-16 21:53:00,,0832.2,4.99,0.00,29.6,28.1,00.0,37.8,31.3,20.8,0000.0,0012.60,0004.87,0003.54
2023-05-16 21:54:00,,0832.1,5.00,0.00,29.6,26.6,00.0,37.8,31.1,21.1,0000.0,0012.82,0004.91,0003.54
2023-05-16 21:55:00,,0832.1,5.00,0.00,29.5,25.9,00.0,37.7,31.0,21.2,0000.0,0012.86,0004.94,0003.54
2023-05-16 21:56:00,,0832.1,5.02,0.00,29.5,26.0,00.0,37.7,30.9,20.6,0000.0,0012.91,0004.93,0003.54
2023-05-16 21:57:00,,0832.0,5.01,0.00,29.4,26.3,00.0,37.7,30.9,19.9,0000.0,0012.40,0004.84,0003.55
2023-05-16 21:58:00,,0832.0,5.00,0.00,29.4,26.6,00.0,37.7,30.9,19.3,0000.0,0011.64,0004.85,0003.55
2023-05-16 21:59:00,,0832.0,5.01,0.00,29.4,26.9,00.0,37.7,31.0,19.2,0000.0,0011.73,0004.85,0003.55
